Погода в Предивинске

Россия / Красноярский край     57°03′41″N   93°26′08″E
темп.,
°C
ветер,
м/с
пор.,
м/с
влажн.,
%
обл.,
%
осадки,
мм/ч
давл.,
гПа
погр.,
м
31 июля, сб
сб3101:00+15юз1167100 0.0 101211
04:00+12ююв1183100 0.0 101310
07:00+14ю1278100 0.0 101575
10:00+20ююз225418 0.0 1015681
13:00+24ююз234256 0.0 10152061
16:00+21ю0163100 0.0 101419
19:00+20св116991 0.0 101511
22:00+17вюв117052 0.0 101516
1 августа, вс
вс101:00+13юв11876 0.0 101510
04:00+12юв1194100 0.0 101510
07:00+15ююв1280100 0.0 101493
10:00+21ююз1156100 0.0 1014598
13:00+24з114684 0.0 10121487
16:00+22всв2354100 0.0 1011450
19:00+20ссв116499 0.0 101011
22:00+17ююз116922 0.0 101111
2 августа, пн
пн201:00+13ююв118993 0.0 101011
04:00+12в009398 0.0 101010
07:00+15ю1180100 0.0 101075
10:00+20з1159100 0.0 1010469
13:00+24сз2244100 0.0 10091540
16:00+24с2243100 0.0 10081974
19:00+21в2567100 0.0 1009186
22:00+17вюв2574100 0.1 1009101
3 августа, вт
вт301:00+15ююв2288100 0.1 100950
04:00+15ююв2286100 0.1 100837
07:00+16ю2380100 0.1 1008136
10:00+21ююз225697 0.0 1007570
13:00+26з114124 0.0 10061553
16:00+26з22376 0.0 10052225
19:00+24ю11580 0.0 100411
22:00+17ююз11803 0.0 100411
4 августа, ср
ср401:00+14ююз22932 0.0 100422
04:00+13ююз11957 0.0 100411
07:00+16юз128247 0.0 1004141
10:00+22зюз2357100 0.0 1003747
13:00+26зсз3442100 0.0 10022076
16:00+23сз2560100 0.0 1002250
19:00+18зюз3894100 2.0 1003245
22:00+16з2799100 4.1 1003197